Location: Unspecified
(51.0950°N, 12.9690°E)
Time: 02:39:12
(UTC+00:00)

ISS - Visible Passes

Search period start: 29 November 2023 00:00
Search period end: 09 December 2023 00:00
Orbit: 416 x 418 km, 51.6° (Epoch: 28 November)

Date Brightness Start Highest point End Pass type
(mag) Time Alt. Az. Time Alt. Az. Time Alt. Az.
29 Nov -3.8 15:40:44 10° W 15:44:07 79° N 15:47:29 10° E visible
29 Nov -3.6 17:17:32 10° W 17:20:53 67° SSW 17:21:00 66° S visible
30 Nov -3.8 16:29:11 10° W 16:32:33 82° SSW 16:34:46 20° ESE visible
30 Nov -1.2 18:06:07 10° W 18:07:42 20° WSW 18:07:42 20° WSW visible
01 Dec -3.8 15:40:48 10° W 15:44:11 86° NNE 15:47:33 10° E visible
01 Dec -2.6 17:17:37 10° W 17:20:47 38° SSW 17:21:32 33° S visible
02 Dec -3.0 16:29:09 10° W 16:32:26 52° SSW 16:35:28 12° SE visible
02 Dec -0.8 18:06:49 10° WSW 18:08:24 14° SW 18:08:24 14° SW visible
03 Dec -3.4 15:40:40 10° W 15:44:01 69° SSW 15:47:21 10° ESE visible
03 Dec -1.3 17:17:49 10° W 17:20:21 20° SW 17:22:32 12° S visible
04 Dec -1.8 16:29:03 10° W 16:32:00 28° SSW 16:34:56 10° SSE visible
05 Dec -2.3 15:40:23 10° W 15:43:34 40° SSW 15:46:44 10° SE visible
06 Dec -0.7 16:29:18 10° WSW 16:31:15 15° SW 16:33:10 10° S visible
07 Dec -0.9 15:40:12 10° W 15:42:49 21° SW 15:45:25 10° SSE visible
